Location: Martin Dies, Jr. State Park
(30.8429°N, 94.1720°W)
Time: 04:33:37
(UTC-05:00)

X-37B - Visible Passes

Search period start: 17 April 2021 00:00
Search period end: 27 April 2021 00:00
Orbit: 380 x 394 km, 45.0° (Epoch: 07 April)

Date Brightness Start Highest point End Pass type
(mag) Time Alt. Az. Time Alt. Az. Time Alt. Az.
17 Apr 3.2 05:21:28 12° NNW 05:22:09 12° NNW 05:23:34 10° N visible
18 Apr 3.9 04:25:33 12° NNE 04:25:33 12° NNE 04:25:53 10° NNE visible
23 Apr 3.7 05:59:43 10° N 06:00:47 11° NNE 06:01:51 10° NE visible
25 Apr 3.5 05:38:45 10° NNW 05:40:56 17° NNE 05:43:06 10° ENE visible
26 Apr 3.8 04:41:10 10° N 04:42:18 11° NNE 04:43:26 10° NE visible
